Lid_Strength_Index
1 1 1 0 0 -0 -0 -1 -1 -1 -1 -1 -1 -0 -0 -0 1 4 9 5 3 -1 1 6 6 7 6 7 7 9 14 15 14 13 12 10 10 9 9 9 9 9 9 8 7
1 1 1 1 1 0 -0 -0 -1 -1 -1 -1 -0 -0 -0 -0 5 8 2 -2 -2 -1 7 8 9 8 9 8 8 12 14 14 12 12 11 10 10 10 10 10 10 9 9 9 9
1 1 1 1 1 1 0 -0 -0 -1 -1 -1 -0 -0 -0 1 9 10 -1 -1 -2 1 6 7 7 8 10 9 9 11 13 12 11 11 10 10 10 9 10 11 10 10 11 10 10
1 1 1 1 1 1 0 -0 -0 -0 -0 -1 -0 -0 0 6 13 7 -1 -1 -2 5 7 8 8 10 11 12 10 12 10 11 9 10 10 11 10 10 10 10 11 11 11 11 11
1 1 1 1 1 1 0 -0 -0 -0 -1 -1 -1 -0 6 8 7 3 -1 -0 5 6 8 9 10 10 12 12 11 11 11 10 10 10 10 11 11 11 12 11 11 11 12 12 12
0 1 1 1 1 1 1 0 -0 -0 -1 -1 -1 0 8 10 4 2 4 6 6 7 9 9 10 10 11 11 12 11 11 11 10 11 11 12 12 11 12 12 12 13 13 13 13
0 1 1 1 1 1 1 1 0 0 -0 -1 0 3 8 7 3 3 5 6 6 7 8 8 8 10 10 12 11 11 12 12 12 12 12 12 13 13 12 12 14 14 14 14 14
-0 0 0 1 1 1 1 1 0 0 -0 -0 1 7 9 6 4 4 6 7 7 7 7 7 8 9 10 10 12 13 14 15 13 12 12 12 14 13 12 13 14 15 15 15 15
1 1 1 1 1 1 1 0 0 -0 -0 1 6 8 9 4 7 5 6 7 7 8 8 7 8 11 11 13 15 15 16 16 14 12 13 13 14 14 13 14 16 16 16 15 15
1 1 1 1 1 2 2 1 1 2 3 3 5 9 8 9 8 7 8 7 9 9 10 10 12 14 15 15 17 16 17 16 16 13 14 14 14 14 15 16 17 17 17 16 16
2 2 2 2 2 2 2 4 7 9 7 9 9 10 10 9 8 9 8 9 10 11 13 13 14 15 14 14 14 15 16 16 15 13 14 14 14 16 15 16 17 17 17 17 17
2 2 2 2 2 2 3 6 7 8 11 8 8 8 9 9 11 10 9 11 12 14 14 15 16 13 13 14 15 16 16 16 15 14 14 15 15 16 16 17 17 17 17 17 17
1 2 2 2 2 3 6 5 7 8 11 9 9 9 9 10 11 11 10 11 13 15 14 16 14 13 14 15 15 16 17 17 16 15 15 16 17 17 17 17 17 17 16 17 17
1 1 1 2 4 4 5 4 6 7 14 13 10 9 10 10 12 10 9 11 13 15 15 16 14 14 16 16 15 18 14 15 16 17 19 16 20 19 18 18 18 17 17 17 17
1 1 1 1 4 5 4 3 5 7 20 12 12 10 11 11 12 12 10 11 14 14 14 16 16 16 16 15 15 16 15 16 16 18 19 19 19 19 18 19 19 18 18 17 17
1 1 1 1 2 4 5 4 4 13 19 13 13 14 13 13 13 13 12 11 12 14 15 15 14 14 14 14 14 15 16 17 18 19 22 18 17 19 20 18 18 18 17 17 17
1 1 2 1 4 4 3 4 13 18 11 14 15 14 14 15 15 14 15 15 15 17 18 16 16 15 15 16 15 16 17 19 22 22 22 19 20 17 17 17 16 17 17 17 17
1 1 1 1 3 2 3 9 17 13 13 14 15 15 15 15 15 15 16 17 15 15 17 18 18 16 15 14 16 17 16 19 24 24 22 19 21 18 17 16 15 16 16 17 17
1 1 1 1 3 2 7 15 15 13 12 14 14 16 17 15 15 16 17 16 14 14 15 17 17 16 16 15 13 17 18 15 20 25 23 20 18 18 18 17 17 17 17 17 17
2 3 3 0 2 4 10 13 12 9 10 11 13 14 17 16 16 17 17 16 15 13 13 14 18 16 16 15 15 16 15 18 18 23 25 21 20 18 19 19 18 18 17 17 17
3 6 3 1 2 7 13 12 10 8 8 11 12 13 14 16 15 16 16 15 15 15 12 14 15 18 16 17 17 17 18 17 16 18 22 24 21 17 17 17 18 17 16 16 17
4 10 3 2 9 9 12 10 8 9 8 9 10 10 12 14 15 15 15 14 13 14 15 14 15 19 18 15 14 16 17 16 18 21 20 21 20 16 16 16 16 16 16 16 16
7 7 3 3 12 12 11 10 9 10 10 10 11 10 9 12 15 14 14 12 12 14 14 13 15 18 17 17 16 17 16 16 16 17 20 19 19 15 16 16 15 16 15 16 16
8 11 7 7 7 10 11 11 11 8 9 9 10 9 11 12 11 13 13 12 11 12 10 11 15 17 18 18 17 18 17 16 16 18 18 17 19 17 17 16 16 15 15 15 15
7 10 9 11 10 9 9 10 12 12 9 9 11 11 12 15 14 15 12 14 12 10 11 12 15 16 18 17 17 19 18 17 17 16 16 17 17 16 15 15 15 14 15 15 15
10 10 9 11 11 10 10 11 11 11 10 11 12 11 11 14 13 15 13 13 14 13 12 12 16 15 17 15 15 17 16 16 16 16 17 16 16 14 13 14 14 14 14 15 14
8 8 9 10 12 11 11 10 11 10 9 10 10 11 12 12 10 11 10 11 11 13 14 14 15 16 18 18 17 18 17 16 15 16 14 17 14 16 15 14 13 13 14 13 14